User: anonymous   Login
Location: Azul
(36.7830°S, 59.8500°W)
Time: 09:50:43
(UTC-03:00)
Language:

XW-2D - Orbit

View from above orbital plane
View from above orbital plane
View from above satellite
View from above satellite

Ground track
Ground track

The orbit data is extracted from the following two-line orbital elements,

1 40907U 15049J   21295.04728817  .00002060  00000-0  10603-3 0  9996
2 40907  97.4893 295.7144 0015393 102.5798 335.4117 15.17447410336793
Epoch (UTC): 22 October 2021 01:08:05
Eccentricity: 0.0015393
inclination: 97.4893°
perigee height: 503 km
apogee height: 524 km
right ascension of ascending node: 295.7144°
argument of perigee: 102.5798°
revolutions per day: 15.17447410
mean anomaly at epoch: 335.4117°
orbit number at epoch: 33679

The dashed part of the orbit path shows where the satellite is in the earth's shadow,  

DLR